Hourly Data Report for October 04, 2017

All times are specified in Local Standard Time (LST). Add 1 hour to adjust for Daylight Saving Time where and when it is observed.

QUALICUM BEACH AIRPORT
BRITISH COLUMBIA

49°20'14.000" N
124°23'38.000" W
58.20 m
1026562
71766
VOQ

Download Data

Hourly Data (October 2017)
Hourly Data Report for October 4, 2017
Temp Definition
°C
Dew Point Temp Definition
°C
Rel Hum Definition
%
Wind Dir Definition
10's deg

Wind Spd Definition
km/h
Visibility Definition
km
Stn Press Definition
kPa
Hmdx Definition


Wind Chill Definition


Weather Definition


TIME
00:00 4.3 2.7 89 27 2   101.68     LegendNANA
01:00 4.3 1.9 84 26 3   101.69     LegendNANA
02:00 3.9 1.8 86 24 3   101.68     LegendNANA
03:00 2.9 1.6 92 24 2   101.65     LegendNANA
04:00 2.8 1.3 90 23 2   101.61     LegendNANA
05:00 3.1 2.0 93 26 2   101.59     LegendNANA
06:00 3.1 1.6 90 24 3   101.59     LegendNANA
07:00 2.8 1.2 89 25 2   101.57     LegendNANA
08:00 6.7 3.9 82 0 1   101.58     LegendNANA
09:00 12.5 3.9 56 30 5   101.56     LegendNANA
10:00 13.8 2.7 47 35 8   101.58     LegendNANA
11:00 14.9 2.2 42 31 12   101.52     LegendNANA
12:00 15.6 4.3 47 2 7   101.47     LegendNANA
13:00 15.5 4.3 47 36 5   101.44     LegendNANA
14:00 16.6 2.0 37 4 6   101.43     LegendNANA
15:00 16.9 2.1 37 4 5   101.41     LegendNANA
16:00 17.0 0.7 33 7 4   101.39     LegendNANA
17:00 16.1 1.6 38 6 3   101.38     LegendNANA
18:00 11.7 4.0 59 30 2   101.40     LegendNANA
19:00 9.0 4.2 72 27 2   101.41     LegendNANA
20:00 7.9 3.3 72 24 2   101.42     LegendNANA
21:00 6.4 4.4 87 23 1   101.45     LegendNANA
22:00 6.0 4.2 88 24 2   101.45     LegendNANA
23:00 4.8 3.6 92 21 2   101.47     LegendNANA

Notes on Data Quality.

Legend

  • E = Estimated
  • M = Missing
  • NA = Not Available
  • ‡ = Partner data that is not subject to review by the National Climate Archives
Date modified: